Location: Paris
(48.6709°N, 2.3750°E)
Time: 12:37:17
(UTC+02:00)

QB50P2 - Pass Details

Date: 28 June 2022
Orbit: 590 x 605 km, 97.9° (Epoch: 14 August)

Event Time Altitude Azimuth Distance (km) Brightness Sun altitude
Rises 04:44:52 0° 359° (N) 2,857 ? -8.5°
Reaches altitude 10° 04:47:42 10° 339° (NNW) 1,953 ? -8.2°
Maximum altitude 04:50:20 16° 300° (WNW) 1,576 ? -8.0°
Drops below altitude 10° 04:52:58 10° 261° (W) 1,949 ? -7.7°
Enters shadow 04:54:07 - 251° (WSW) 2,279 ? -7.6°
